Regional Weather Roundup
Issued by NWS

Home | Current Version | Previous Version | Graphics & Text | Print | Product List | Glossary On
Versions: 1 2 3 4 5 6 7 8 9 10 11 12 13 14 15 16 17 18 19 20 21 22 23 24 25 26 27 28
000
ASUS45 KPSR 240410
RWRAZ

ARIZONA HOURLY REGIONAL WEATHER ROUNDUP
NATIONAL WEATHER SERVICE PHOENIX AZ
900 PM MST MON JAN 23 2017

NOTE: FAIR INDICATES FEW OR NO CLOUDS BELOW 12,000 FEET WITH NO
SIGNIFICANT WEATHER AND/OR OBSTRUCTIONS TO VISIBILITY.

AZZ001>003-036-240500-
NORTHWEST ARIZONA

CITY           SKY/WX    TMP DP  RH WIND       PRES   REMARKS
BULLHEAD CITY  MOCLDY    48  41  76 SE7       29.76S
KINGMAN        CLOUDY    37  33  85 SW13      29.71S WCI  29
$$

AZZ004>008-015-016-018-240500-
NORTH CENTRAL ARIZONA

CITY           SKY/WX    TMP DP  RH WIND       PRES   REMARKS
GRAND CANYON   CLOUDY    24  23  96 SW6       29.66F WCI  17
WILLIAMS       SNOW      27  25  93 W13       29.67S VSB 1/2 WCI  16
PRESCOTT       LGT SNOW  33  32  96 SW9       29.71S FOG     WCI  25
FLAGSTAFF      LGT SNOW  26  24  92 SW13G24   29.65F FOG     WCI  15
PAYSON         LGT RAIN  36  32  87 SW8G20    29.74S WCI  29
PAGE           CLOUDY    38  27  64 CALM      29.65R
$$

AZZ009>014-017-240500-
NORTHEAST ARIZONA

CITY           SKY/WX    TMP DP  RH WIND       PRES   REMARKS
WINSLOW        CLOUDY    37  33  85 SW15      29.68F WCI  28
SAINT JOHNS    FLURRIES  35  33  92 W22G29    29.69F WCI  23
SHOW LOW       LGT SNOW  30  28  93 SW12      29.71F WCI  21
$$

AZZ023-240500-
GREATER PHOENIX AREA

CITY           SKY/WX    TMP DP  RH WIND       PRES   REMARKS
PHOENIX        LGT RAIN  50  44  80 W18       29.78R
BUCKEYE        CLOUDY    48  45  87 NW5       29.79F
LUKE AFB       CLOUDY    50  46  87 CALM      29.77F
DEER VALLEY    LGT RAIN  48  43  82 SW10      29.79R
SCOTTSDALE     LGT RAIN  48  44  86 W10       29.81R
MESA-GATEWAY   RAIN      52  46  82 W15G22    29.78R
CHANDLER       CLOUDY    54  45  71 W23G33    29.78R
$$

AZZ027-028-240500-
SOUTHWEST MARICOPA COUNTY AND PINAL COUNTY

CITY           SKY/WX    TMP DP  RH WIND       PRES   REMARKS
CASA GRANDE    LGT RAIN  52  45  77 SW17      29.80R
GILA BEND      CLOUDY    50  45  81 CALM      29.82R
$$

AZZ503-504-507>509-240500-
SOUTHEAST ARIZONA

CITY           SKY/WX    TMP DP  RH WIND       PRES   REMARKS
TUCSON         MOCLDY    55  38  52 W16G24    29.81R
DAVIS-MONTHAN  PTCLDY    54  38  54 W17G28    29.79S
NOGALES        LGT RAIN  49  42  77 SW22G28   29.83S
SIERRA VISTA   CLOUDY    51  36  57 SW30G39   29.78S
DOUGLAS        CLOUDY    54  33  45 SW22G31   29.79F
SAFFORD        CLOUDY    55  38  52 NW10      29.69F
$$

AZZ020-021-025-026-031-240500-
SOUTHWEST ARIZONA

CITY           SKY/WX    TMP DP  RH WIND       PRES   REMARKS
YUMA           CLOUDY    52  40  63 W12       29.83S
$$

CAZ031-033-041-043-047-048-061-240500-
SOUTHERN CALIFORNIA

CITY           SKY/WX    TMP DP  RH WIND       PRES   REMARKS
DOWNTOWN L.A.  CLEAR     50  42  74 CALM      29.86R
L.A. AIRPORT   PTCLDY    50  41  71 CALM      29.88R
SAN DIEGO      MOCLDY    53  41  63 W8        29.93R
BURBANK        CLEAR     45  37  73 NW6       29.86R
ONTARIO        PTCLDY    42  42 100 NE3       29.86R
RIVERSIDE      PTCLDY    44  42  93 CALM      29.87R
PALM SPRINGS   PTCLDY    45  41  86 NE5       29.83R
EL CENTRO NAS  PTCLDY    49  36  61 N9        29.87R
IMPERIAL       CLEAR     50  38  63 W5        29.84R
BLYTHE         MOCLDY    53  39  59 SW6       29.80R
NEEDLES        MOCLDY    52  36  54 W8        29.76R
$$

NVZ020-UTZ003-240500-
SOUTHERN NEVADA-UTAH

CITY           SKY/WX    TMP DP  RH WIND       PRES   REMARKS
LAS VEGAS      CLOUDY    46  31  55 N13       29.70R
SALT LAKE CITY CLOUDY    33  29  85 NE6       29.61S WCI  28
$$

NMZ009-TXZ055-240500-
NEW MEXICO-WEST TEXAS

CITY           SKY/WX    TMP DP  RH WIND       PRES   REMARKS
ALBUQUERQUE    CLOUDY    44  27  51 SE7       29.63F
EL PASO        CLEAR     57  28  33 SW7       29.76F
$$


........................KEY........................
SKY/WX - SKY CONDITION/WEATHER
TMP    - TEMPERATURE IN FAHRENHEIT
DP     - DEW POINT IN FAHRENHEIT
RH     - RELATIVE HUMIDITY IN PERCENT
WIND   - DIRECTION AND SPEED IN MILES PER HOUR (MPH)
VRB    - VARIABLE WIND DIRECTION
PRES   - MEAN SEA LEVEL PRESSURE IN INCHES OF MERCURY
         F - FALLING PRESSURE   R - RISING PRESSURE
         S - STEADY PRESSURE
VSB    - VISIBILITY IN MILES
HX     - HEAT INDEX IN FAHRENHEIT
WCI    - WIND CHILL INDEX IN FAHRENHEIT
TC     - TEMPERATURE IN CELSIUS WHICH IS ALSO KNOWN AS
         TEMPERATURE IN CENTIGRADE
AFB    - AIR FORCE BASE
         LUKE AFB IS LUKE AIR FORCE BASE
         DAVIS-MONTHAN IS DAVIS-MONTHAN AIR FORCE BASE
NAS    - NAVAL AIR STATION
         EL CENTRO NAS IS EL CENTRO NAVAL AIR STATION
N/A    - NOT AVAILABLE





USA.gov is the U.S. government's official web portal to all federal, state and local government web resources and services.